SR1WXW Weather Reports


Display with metric or nautical units.
time (UTC)temp
F
wind
direction
speed
MPH
gust
MPH
rain 1hr
in
rain 24hr
in
rain mn
in
humidity
%
barometer
mb
20260507210254 43 337 0.0 0.0 0.00 0.00 0.00 85 1013.8
20260507205754 43 337 0.0 0.0 0.00 0.00 0.00 84 1013.8
20260507205254 43 337 0.0 0.0 0.00 0.00 0.00 84 1013.7
20260507204754 43 22 0.0 0.0 0.00 0.00 0.00 84 1013.7
20260507204254 43 337 0.0 0.0 0.00 0.00 0.00 84 1013.6
20260507203754 43 315 0.0 0.0 0.00 0.00 0.00 84 1013.6
20260507203254 43 292 0.0 0.0 0.00 0.00 0.00 84 1013.6
20260507202754 43 292 0.0 0.0 0.00 0.00 0.00 84 1013.5
20260507202254 43 315 0.0 0.0 0.00 0.00 0.00 83 1013.5
20260507201754 43 315 0.0 0.0 0.00 0.00 0.00 83 1013.5
20260507201254 43 315 0.0 0.0 0.00 0.00 0.00 83 1013.4
20260507200754 43 315 0.0 0.0 0.00 0.00 0.00 83 1013.5
20260507200254 43 315 0.0 0.0 0.00 0.00 0.00 82 1013.3
20260507195754 43 315 0.0 0.0 0.00 0.00 0.00 82 1013.2
20260507195254 44 0 0.0 0.0 0.00 0.00 0.00 82 1013.2
20260507194754 44 292 0.0 0.0 0.00 0.00 0.00 82 1013.1
20260507194254 44 315 0.0 0.0 0.00 0.00 0.00 82 1013.1
20260507193754 44 315 0.0 0.0 0.00 0.00 0.00 81 1012.9
20260507193254 44 315 0.0 0.0 0.00 0.00 0.00 81 1012.8
20260507192754 44 0 0.0 0.0 0.00 0.00 0.00 81 1012.7
20260507192254 44 337 0.0 0.0 0.00 0.00 0.00 80 1012.6
20260507191754 45 337 0.0 0.0 0.00 0.00 0.00 80 1012.6
20260507191254 45 337 0.0 0.0 0.00 0.00 0.00 80 1012.6
20260507190754 45 315 0.0 0.0 0.00 0.00 0.00 79 1012.6
20260507190254 45 292 0.0 0.0 0.00 0.00 0.00 79 1012.7
20260507185754 45 337 0.0 0.0 0.00 0.00 0.00 79 1012.7
20260507185254 46 292 0.0 0.0 0.00 0.00 0.00 78 1012.6
20260507184754 46 315 0.0 0.0 0.00 0.00 0.00 78 1012.5
20260507184254 46 0 0.0 0.0 0.00 0.00 0.00 78 1012.4
20260507183754 46 337 0.0 0.0 0.00 0.00 0.00 78 1012.3
20260507183254 46 337 0.0 0.0 0.00 0.00 0.00 77 1012.2
20260507182754 46 337 0.0 0.0 0.00 0.00 0.00 77 1012.1
20260507182254 47 315 0.0 0.0 0.00 0.00 0.00 77 1012.1
20260507181754 47 315 0.0 0.0 0.00 0.00 0.00 77 1012.1
20260507181254 47 0 0.0 0.0 0.00 0.00 0.00 76 1012.1
20260507180754 48 315 0.0 0.0 0.00 0.00 0.00 76 1012.0
20260507180254 48 315 0.0 0.0 0.00 0.00 0.00 75 1012.1
20260507175754 48 315 0.0 0.0 0.00 0.00 0.00 75 1012.1
20260507175254 48 270 0.0 0.0 0.00 0.00 0.00 75 1012.0
20260507174754 48 292 0.0 0.0 0.00 0.00 0.00 74 1012.0
20260507174254 49 315 0.0 0.0 0.00 0.00 0.00 74 1011.9
20260507173754 49 0 0.0 0.0 0.00 0.00 0.00 73 1012.0
20260507173254 49 0 0.0 0.0 0.00 0.00 0.00 73 1011.9
20260507172754 49 0 0.0 0.0 0.00 0.00 0.00 73 1011.9
20260507172254 49 22 0.0 1.0 0.00 0.00 0.00 73 1011.9
20260507171754 49 22 0.0 2.0 0.00 0.00 0.00 74 1011.8
20260507171254 50 22 0.0 0.0 0.00 0.00 0.00 74 1011.8
20260507170754 50 337 0.0 0.0 0.00 0.00 0.00 73 1011.7
20260507170254 50 45 0.0 0.0 0.00 0.00 0.00 73 1011.6
20260507165754 50 337 0.0 0.0 0.00 0.00 0.00 73 1011.7
20260507165254 50 337 0.0 0.0 0.00 0.00 0.00 73 1011.7
20260507164754 50 45 1.0 3.0 0.00 0.00 0.00 73 1011.7
20260507164254 50 315 0.0 0.0 0.00 0.00 0.00 73 1011.7
20260507163754 50 337 0.0 0.0 0.00 0.00 0.00 72 1011.7
20260507163254 50 337 0.0 0.0 0.00 0.00 0.00 72 1011.6
20260507162754 50 22 0.0 0.0 0.00 0.00 0.00 72 1011.6
20260507162254 50 22 0.0 0.0 0.00 0.00 0.00 72 1011.6
20260507161754 50 22 0.0 2.0 0.00 0.00 0.00 72 1011.7
20260507161254 50 45 1.0 1.0 0.00 0.00 0.00 72 1011.5
20260507160754 50 0 0.0 0.0 0.00 0.00 0.00 71 1011.5
20260507160254 50 0 0.0 1.0 0.00 0.00 0.00 71 1011.5
20260507155754 50 45 0.0 1.0 0.00 0.00 0.00 71 1011.5
20260507155254 50 22 0.0 4.0 0.00 0.00 0.00 71 1011.4
20260507154754 50 22 0.0 3.0 0.00 0.00 0.00 71 1011.4
20260507154254 50 22 0.0 1.0 0.00 0.00 0.00 71 1011.5
20260507153754 50 22 0.0 1.0 0.00 0.00 0.00 71 1011.5
20260507153254 50 0 0.0 2.0 0.00 0.00 0.00 70 1011.5
20260507152754 51 45 2.0 4.0 0.00 0.00 0.00 70 1011.6
20260507152254 51 22 0.0 7.0 0.00 0.00 0.00 70 1011.5
20260507151754 51 45 2.0 2.0 0.00 0.00 0.00 71 1011.5
20260507151254 51 22 0.0 2.0 0.00 0.00 0.00 71 1011.5
20260507150754 51 0 0.0 5.0 0.00 0.00 0.00 72 1011.5
20260507150254 51 0 0.0 4.0 0.00 0.00 0.00 72 1011.4
20260507145754 51 0 0.0 0.0 0.00 0.02 0.00 72 1011.4
20260507145254 51 22 0.0 4.0 0.00 0.02 0.00 72 1011.4
20260507144754 51 45 0.0 4.0 0.00 0.02 0.00 72 1011.4
20260507144254 51 0 0.0 4.0 0.00 0.02 0.00 72 1011.2
20260507143754 51 45 0.0 6.0 0.00 0.02 0.00 73 1011.2
20260507143255 51 22 0.0 0.0 0.00 0.02 0.00 74 1011.2
20260507142755 51 337 0.0 2.0 0.00 0.02 0.00 74 1011.2
20260507142254 51 22 2.0 2.0 0.00 0.02 0.00 74 1011.3
20260507141755 51 22 0.0 0.0 0.00 0.02 0.00 75 1011.1
20260507141255 51 0 0.0 0.0 0.00 0.02 0.00 74 1011.1
20260507140755 51 22 0.0 0.0 0.00 0.02 0.00 74 1011.0
20260507140255 51 22 0.0 0.0 0.00 0.02 0.00 74 1011.1
20260507135755 51 45 0.0 0.0 0.00 0.02 0.00 75 1011.1
20260507135255 51 0 0.0 0.0 0.00 0.02 0.00 75 1011.0
20260507134755 51 22 0.0 0.0 0.00 0.02 0.00 75 1011.0
20260507134255 51 337 0.0 1.0 0.00 0.02 0.00 75 1011.0
20260507133755 51 22 0.0 1.0 0.00 0.02 0.00 76 1011.0
20260507133255 51 22 0.0 2.0 0.00 0.02 0.00 76 1011.0
20260507132755 51 22 0.0 0.0 0.00 0.02 0.00 76 1010.9
20260507132255 50 22 0.0 0.0 0.00 0.02 0.00 77 1010.9
20260507131755 50 67 0.0 2.0 0.00 0.02 0.00 77 1010.9
20260507131255 50 22 2.0 2.0 0.00 0.02 0.00 78 1010.9
20260507130755 50 45 0.0 1.0 0.00 0.02 0.00 77 1010.9
20260507130255 50 45 0.0 1.0 0.00 0.02 0.00 78 1010.9
20260507125755 49 45 0.0 1.0 0.00 0.02 0.00 78 1010.7
20260507125255 49 157 0.0 2.0 0.00 0.02 0.00 78 1010.8
20260507124755 49 22 0.0 2.0 0.00 0.02 0.00 77 1010.7
20260507124255 49 45 0.0 1.0 0.00 0.02 0.00 78 1010.7
20260507123755 49 0 1.0 3.0 0.00 0.02 0.00 78 1010.6
20260507123255 49 45 1.0 3.0 0.00 0.02 0.00 78 1010.5
20260507122755 49 22 0.0 3.0 0.00 0.02 0.00 78 1010.6
20260507122255 49 45 0.0 4.0 0.00 0.02 0.00 77 1010.6
20260507121755 49 45 0.0 3.0 0.00 0.02 0.00 78 1010.5
20260507121255 49 22 0.0 2.0 0.00 0.02 0.00 78 1010.4
20260507120755 49 22 1.0 2.0 0.00 0.02 0.00 78 1010.4
20260507120255 49 22 0.0 5.0 0.00 0.02 0.00 78 1010.5
20260507115755 49 45 4.0 6.0 0.00 0.02 0.00 79 1010.4
20260507115255 49 67 3.0 3.0 0.00 0.02 0.00 80 1010.5
20260507114755 48 45 1.0 4.0 0.00 0.02 0.00 79 1010.4
20260507114255 48 22 0.0 4.0 0.00 0.02 0.00 79 1010.4
20260507113755 48 67 3.0 3.0 0.00 0.02 0.00 80 1010.4
20260507113255 48 45 2.0 3.0 0.00 0.02 0.00 79 1010.4
20260507112755 48 22 1.0 3.0 0.00 0.02 0.00 80 1010.4
20260507112255 48 22 2.0 4.0 0.00 0.02 0.00 81 1010.4
20260507111755 48 22 1.0 2.0 0.00 0.02 0.00 81 1010.3
20260507111255 47 90 0.0 3.0 0.00 0.02 0.00 81 1010.2
20260507110755 47 67 2.0 4.0 0.00 0.02 0.00 81 1010.3
20260507110255 47 22 1.0 2.0 0.00 0.02 0.00 80 1010.2
20260507105755 47 45 2.0 4.0 0.00 0.04 0.00 80 1010.3
20260507105255 47 45 2.0 4.0 0.00 0.04 0.00 80 1010.2
20260507104755 47 45 4.0 4.0 0.00 0.04 0.00 80 1010.1
20260507104255 47 22 2.0 4.0 0.00 0.04 0.00 80 1010.2
20260507103755 48 45 2.0 2.0 0.00 0.04 0.00 80 1010.2
20260507103255 48 0 2.0 5.0 0.00 0.04 0.00 79 1010.0
20260507102756 48 22 1.0 6.0 0.00 0.04 0.00 79 1010.0
20260507102255 48 22 3.0 8.0 0.00 0.04 0.00 79 1010.0
20260507101755 48 0 5.0 5.0 0.00 0.04 0.00 79 1009.9
20260507101255 48 45 3.0 6.0 0.00 0.04 0.00 80 1009.8
20260507100755 48 45 0.0 5.0 0.00 0.04 0.00 81 1009.8
20260507100255 48 45 1.0 5.0 0.00 0.04 0.00 82 1009.8
20260507095755 48 0 3.0 7.0 0.00 0.06 0.00 82 1009.7
20260507095255 47 0 3.0 5.0 0.00 0.06 0.00 82 1009.6
20260507094755 47 0 1.0 6.0 0.00 0.06 0.00 82 1009.6
20260507094255 47 0 0.0 6.0 0.00 0.06 0.00 82 1009.5
20260507093755 47 22 3.0 8.0 0.00 0.06 0.00 82 1009.4
20260507093255 47 22 4.0 5.0 0.00 0.06 0.00 83 1009.2
20260507092755 47 0 0.0 5.0 0.00 0.06 0.00 85 1009.2
20260507092255 46 0 0.0 4.0 0.00 0.06 0.00 85 1009.2
20260507091755 46 22 2.0 3.0 0.00 0.06 0.00 85 1009.2
20260507091255 46 315 2.0 4.0 0.00 0.06 0.00 85 1009.2
20260507090755 46 0 1.0 3.0 0.00 0.06 0.00 85 1009.0
20260507090255 46 0 3.0 6.0 0.00 0.06 0.00 85 1009.1
20260507085755 45 22 3.0 4.0 0.00 0.06 0.00 85 1009.2
20260507085255 46 0 2.0 7.0 0.00 0.06 0.00 86 1009.2
20260507084755 46 0 3.0 6.0 0.00 0.06 0.00 86 1009.1
20260507084255 45 22 1.0 5.0 0.00 0.06 0.00 86 1009.1
20260507083755 45 22 1.0 5.0 0.00 0.06 0.00 86 1009.0
20260507083255 45 337 1.0 4.0 0.00 0.06 0.00 86 1008.9
20260507082755 45 45 5.0 6.0 0.00 0.06 0.00 86 1008.9
20260507082255 45 45 3.0 5.0 0.00 0.06 0.00 86 1008.8
20260507081755 45 22 2.0 8.0 0.00 0.06 0.00 86 1008.8
20260507081255 45 0 2.0 7.0 0.00 0.06 0.00 87 1008.8
20260507080755 45 45 2.0 6.0 0.00 0.06 0.00 87 1008.8
20260507080255 45 0 3.0 6.0 0.00 0.06 0.00 87 1008.7
20260507075755 45 0 3.0 6.0 0.00 0.20 0.00 88 1008.8
20260507075255 45 0 2.0 6.0 0.00 0.20 0.00 88 1008.6
20260507074755 45 22 3.0 6.0 0.00 0.20 0.00 88 1008.5
20260507074255 45 0 3.0 6.0 0.00 0.20 0.00 89 1008.5
20260507073755 45 22 3.0 4.0 0.00 0.20 0.00 90 1008.5
20260507073255 45 22 2.0 6.0 0.00 0.20 0.00 90 1008.3
20260507072755 44 22 0.0 8.0 0.00 0.20 0.00 90 1008.4
20260507072255 43 45 8.0 9.0 0.00 0.20 0.00 91 1008.4
20260507071755 43 0 3.0 5.0 0.00 0.20 0.00 90 1008.2
20260507071256 43 22 0.0 5.0 0.00 0.20 0.00 91 1008.3
20260507070755 42 22 2.0 7.0 0.00 0.20 0.00 91 1008.2
20260507070256 42 22 1.0 4.0 0.00 0.20 0.00 91 1008.2
20260507065756 42 45 4.0 4.0 0.00 0.55 0.00 91 1008.3
20260507065256 42 22 3.0 6.0 0.00 0.55 0.00 91 1008.3
20260507064756 42 22 5.0 5.0 0.00 0.55 0.00 91 1008.3
20260507064256 42 67 3.0 6.0 0.00 0.55 0.00 91 1008.3
20260507063756 42 22 2.0 8.0 0.00 0.55 0.00 91 1008.3
20260507063256 42 22 1.0 4.0 0.00 0.55 0.00 92 1008.1
20260507062756 42 22 1.0 5.0 0.00 0.55 0.00 92 1008.1
20260507062256 42 0 1.0 5.0 0.00 0.55 0.00 92 1008.1
20260507061756 42 0 1.0 6.0 0.00 0.55 0.00 92 1008.0
20260507061256 42 0 2.0 6.0 0.00 0.55 0.00 92 1007.9
20260507060756 42 22 0.0 3.0 0.00 0.55 0.00 92 1007.9
20260507060256 42 22 3.0 4.0 0.00 0.55 0.00 92 1007.8
20260507055756 42 22 1.0 4.0 0.00 0.69 0.00 92 1007.7
20260507055256 41 0 0.0 4.0 0.00 0.69 0.00 92 1007.6
20260507054756 41 22 1.0 11.0 0.00 0.69 0.00 92 1007.6
20260507054256 41 0 2.0 3.0 0.00 0.69 0.00 92 1007.7
20260507053756 41 22 1.0 4.0 0.00 0.69 0.00 92 1007.6
20260507053256 41 22 0.0 2.0 0.00 0.69 0.00 92 1007.6
20260507052756 41 45 1.0 4.0 0.00 0.69 0.00 92 1007.5
20260507052256 41 337 2.0 3.0 0.00 0.69 0.00 92 1007.4
20260507051756 41 0 1.0 2.0 0.00 0.69 0.00 92 1007.5
20260507051256 41 22 1.0 5.0 0.00 0.69 0.00 92 1007.3
20260507050756 41 0 3.0 5.0 0.00 0.69 0.00 92 1007.3
20260507050256 42 45 2.0 4.0 0.00 0.69 0.00 92 1007.3
20260507045756 42 315 0.0 6.0 0.00 0.83 0.00 92 1007.2
20260507045256 42 337 0.0 3.0 0.00 0.83 0.00 92 1007.1
20260507044756 42 22 1.0 5.0 0.00 0.83 0.00 93 1007.0
20260507044256 42 45 3.0 3.0 0.00 0.83 0.00 93 1007.0
20260507043756 42 22 3.0 4.0 0.00 0.83 0.00 93 1006.9
20260507043256 42 0 2.0 5.0 0.00 0.83 0.00 93 1006.8
20260507042756 42 22 2.0 2.0 0.00 0.83 0.00 93 1006.7
20260507042256 42 22 0.0 8.0 0.00 0.83 0.00 93 1006.7
20260507041756 42 22 5.0 8.0 0.00 0.83 0.00 93 1006.6
20260507041256 41 45 3.0 5.0 0.00 0.83 0.00 93 1006.5
20260507040756 41 22 3.0 4.0 0.00 0.83 0.00 93 1006.5
20260507040256 41 22 1.0 4.0 0.00 0.83 0.00 93 1006.2
20260507035756 42 22 2.0 5.0 0.00 0.91 0.00 93 1006.2
20260507035256 41 0 1.0 8.0 0.00 0.91 0.00 93 1006.3
20260507034756 41 0 2.0 4.0 0.00 0.91 0.00 93 1006.2
20260507034256 41 337 2.0 4.0 0.00 0.91 0.00 93 1006.1
20260507033756 42 0 0.0 4.0 0.00 0.91 0.00 93 1006.0
20260507033256 42 0 2.0 5.0 0.00 0.91 0.00 93 1006.0
20260507032756 42 0 3.0 5.0 0.00 0.91 0.00 93 1006.1
20260507032256 42 0 1.0 3.0 0.00 0.91 0.00 93 1006.1
20260507031756 42 22 0.0 4.0 0.00 0.91 0.00 93 1006.1
20260507031256 42 0 1.0 5.0 0.00 0.91 0.00 93 1006.1
20260507030756 42 0 1.0 4.0 0.00 0.91 0.00 93 1006.0
20260507030256 42 0 1.0 4.0 0.00 0.91 0.00 93 1006.0
20260507025756 42 0 1.0 3.0 0.00 0.97 0.00 93 1006.0
20260507025256 42 0 2.0 4.0 0.00 0.97 0.00 93 1005.8
20260507024756 42 22 2.0 2.0 0.00 0.97 0.00 93 1005.8
20260507024256 42 22 0.0 3.0 0.00 0.97 0.00 93 1005.7
20260507023756 42 0 2.0 4.0 0.00 0.97 0.00 93 1005.7
20260507023256 42 22 2.0 3.0 0.00 0.97 0.00 93 1005.8
20260507022756 42 0 3.0 6.0 0.00 0.97 0.00 93 1005.9
20260507022256 41 0 1.0 4.0 0.00 0.97 0.00 93 1005.9
20260507021756 41 0 2.0 4.0 0.00 0.97 0.00 93 1006.0
20260507021256 41 45 2.0 3.0 0.00 0.97 0.00 93 1006.0
20260507020756 42 22 2.0 2.0 0.00 0.97 0.00 93 1006.0
20260507020256 42 0 1.0 4.0 0.00 0.97 0.00 93 1006.0
20260507015756 42 22 1.0 3.0 0.00 0.97 0.00 93 1005.9
20260507015256 42 22 2.0 3.0 0.00 0.97 0.00 93 1005.9
20260507014756 42 0 1.0 4.0 0.00 0.97 0.00 93 1005.8
20260507014256 42 315 3.0 3.0 0.00 0.97 0.00 94 1005.9
20260507013757 42 22 1.0 3.0 0.00 0.97 0.00 94 1005.8
20260507013256 42 0 2.0 2.0 0.00 0.97 0.00 94 1005.7
20260507012756 42 337 2.0 5.0 0.00 0.97 0.00 94 1005.6
20260507012256 42 0 1.0 2.0 0.00 0.97 0.00 94 1005.4
20260507011756 42 22 2.0 4.0 0.00 0.97 0.00 94 1005.6
20260507011256 42 45 0.0 3.0 0.00 0.97 0.00 94 1005.6
20260507010756 42 337 2.0 3.0 0.00 0.97 0.00 94 1005.6
20260507010256 42 45 0.0 3.0 0.00 0.97 0.00 94 1005.6
20260507005756 41 0 0.0 3.0 0.00 0.97 0.00 94 1005.6
20260507005256 41 45 0.0 4.0 0.00 0.97 0.00 94 1005.4
20260507004756 41 22 1.0 4.0 0.00 0.97 0.00 94 1005.4
20260507004256 41 22 1.0 5.0 0.00 0.97 0.00 94 1005.3
20260507003756 41 22 2.0 3.0 0.00 0.97 0.00 94 1005.2
20260507003256 41 315 2.0 4.0 0.00 0.97 0.00 94 1005.2
20260507002756 41 22 1.0 3.0 0.00 0.97 0.00 94 1005.2
20260507002256 41 45 2.0 3.0 0.00 0.97 0.00 94 1005.3
20260507001756 41 22 2.0 3.0 0.00 0.97 0.00 94 1005.3
20260507001256 41 0 1.0 5.0 0.00 0.97 0.00 94 1005.1
20260507000756 41 22 2.0 4.0 0.00 0.97 0.00 94 1005.2
20260507000258 41 0 2.0 5.0 0.00 0.97 0.00 94 1005.1
20260506235756 41 22 4.0 4.0 0.00 0.97 0.00 94 1005.0
20260506235257 41 0 3.0 5.0 0.00 0.97 0.00 94 1005.1
20260506234757 41 22 2.0 6.0 0.00 0.97 0.00 94 1005.0
20260506234257 41 0 3.0 5.0 0.00 0.97 0.00 94 1004.9
20260506233757 41 22 2.0 6.0 0.00 0.97 0.00 94 1004.9
20260506233257 41 22 4.0 4.0 0.00 0.97 0.00 94 1004.9
20260506232757 41 0 4.0 6.0 0.00 0.97 0.00 94 1004.8
20260506232257 41 22 4.0 6.0 0.00 0.97 0.00 94 1004.7
20260506231757 42 22 4.0 4.0 0.00 0.97 0.00 94 1004.8
20260506231257 42 22 4.0 5.0 0.00 0.97 0.00 94 1004.8
20260506230757 42 337 1.0 4.0 0.00 0.97 0.00 94 1004.9
20260506230257 42 22 5.0 5.0 0.00 0.97 0.00 94 1004.7
20260506225757 42 45 5.0 5.0 0.00 0.97 0.00 94 1004.8
20260506225257 42 22 4.0 4.0 0.00 0.97 0.00 94 1005.0
20260506224757 42 157 0.0 3.0 0.00 0.97 0.00 94 1005.1
20260506224257 42 0 1.0 4.0 0.00 0.97 0.00 94 1005.1
20260506223757 42 0 1.0 4.0 0.00 0.97 0.00 94 1004.9
20260506223257 42 22 0.0 3.0 0.00 0.97 0.00 94 1005.0
20260506222757 42 0 2.0 3.0 0.00 0.97 0.00 94 1005.0
20260506222257 42 22 1.0 7.0 0.00 0.97 0.00 94 1005.0
20260506221757 42 22 2.0 4.0 0.00 0.97 0.00 94 1005.0
20260506221257 42 22 4.0 4.0 0.00 0.97 0.00 94 1005.0
20260506220757 42 22 3.0 4.0 0.00 0.97 0.00 94 1004.9
20260506220257 42 0 3.0 5.0 0.00 0.97 0.00 94 1004.7
20260506215757 42 0 4.0 4.0 0.00 0.97 0.00 94 1004.8
20260506215257 42 22 2.0 7.0 0.00 0.97 0.00 94 1004.8
20260506214757 42 337 1.0 4.0 0.00 0.97 0.00 94 1004.8
20260506214257 42 22 3.0 4.0 0.00 0.97 0.00 94 1004.8
20260506213757 41 0 2.0 4.0 0.00 0.97 0.00 94 1004.8
20260506213257 42 22 4.0 5.0 0.00 0.97 0.00 94 1004.7
20260506212757 42 22 2.0 4.0 0.00 0.97 0.00 94 1004.4
20260506212257 42 22 1.0 4.0 0.00 0.97 0.00 94 1004.3
20260506211757 42 22 2.0 5.0 0.00 0.97 0.00 94 1004.5
20260506211257 42 22 3.0 3.0 0.00 0.97 0.00 94 1004.4
20260506210757 42 0 1.0 4.0 0.00 0.97 0.00 94 1004.5